Regional Weather Roundup
Issued by NWS

Home | Current Version | Previous Version | Text Only | Print | Product List | Glossary On
Versions: 1 2 3 4 5 6 7 8 9 10 11 12 13 14 15 16 17 18 19 20 21 22 23 24 25 26 27 28 29 30 31 32 33 34 35 36 37 38 39 40 41 42 43 44 45 46 47 48 49 50
000
ASUS44 KFWD 271203
RWRTX
NORTH TEXAS HOURLY WEATHER ROUNDUP
NATIONAL WEATHER SERVICE FORT WORTH TX
700 AM CDT THU APR 27 2017

NOTE: "FAIR" INDICATES FEW OR NO CLOUDS BELOW 12,000 FEET WITH NO
SIGNIFICANT WEATHER AND/OR OBSTRUCTIONS TO VISIBILITY.

TXZ118-119-271300-
DALLAS/FORT WORTH METROPLEX

CITY           SKY/WX    TMP DP  RH WIND       PRES   REMARKS
DFW AIRPORT    CLOUDY    49  48  97 SE3       29.74S
6HR MIN TEMP:  46; 6HR MAX TEMP:  53;

DALLAS LOVE    MOCLDY    52  47  83 SE3       29.76S
6HR MIN TEMP:  48; 6HR MAX TEMP:  55;

FTW MEACHAM    CLOUDY    48  46  93 SW6       29.78R
6HR MIN TEMP:  47; 6HR MAX TEMP:  52;

DAL-EXECUTIVE  PTCLDY    47  46  97 S5        29.77R
6HR MIN TEMP:  46; 6HR MAX TEMP:  49;

FTW-ALLIANCE   MOCLDY    47  45  93 CALM      29.75S
6HR MIN TEMP:  40; 6HR MAX TEMP:  47;

FTW-NAS-JRB    MOCLDY    51  47  86 SW8       29.79R
6HR MIN TEMP:  49; 6HR MAX TEMP:  54;

FTW-SPINKS     CLEAR     46  46 100 SW8       29.80R
ARLINGTON      CLOUDY    48  45  89 SE5       29.76S
6HR MIN TEMP:  42; 6HR MAX TEMP:  49;

GRAND PRAIRIE  CLEAR     50  46  87 CALM      29.78R
ADDISON        CLEAR     52  46  82 E3        29.76S
MESQUITE       CLEAR     45  45 100 CALM      29.78R
LANCASTER      CLEAR     42  41  97 CALM      29.77S FOG
6HR MIN TEMP:  41; 6HR MAX TEMP:  47;

$$

TXZ091>094-102>105-117-120-121-131>134-271300-
NORTH CENTRAL TEXAS

CITY           SKY/WX    TMP DP  RH WIND       PRES   REMARKS
SHRMAN/DENISON CLOUDY    46  45  95 CALM      29.78R
6HR MIN TEMP:  41; 6HR MAX TEMP:  48;

GAINESVILLE    CLOUDY    44  43  94 CALM      29.78S
6HR MIN TEMP:  42; 6HR MAX TEMP:  45;

BOWIE          PTCLDY    47  47 100 CALM      29.72F
6HR MIN TEMP:  42; 6HR MAX TEMP:  47;

BRIDGEPORT     CLOUDY    43  43 100 W5        29.80R
6HR MIN TEMP:  40; 6HR MAX TEMP:  46;

DECATUR        CLOUDY    48  43  82 S5        29.76R
DENTON         CLOUDY    44  44 100 CALM      29.75F
6HR MIN TEMP:  40; 6HR MAX TEMP:  46;

MCKINNEY       CLOUDY    44  44 100 CALM      29.77R
6HR MIN TEMP:  41; 6HR MAX TEMP:  47;

BONHAM         PTCLDY    43  41  93 S5        29.79R
GREENVILLE     CLEAR     46  45  93 CALM      29.77S
ROCKWALL       CLEAR     48  47  95 CALM      29.77R
6HR MIN TEMP:  47; 6HR MAX TEMP:  50;

TERRELL        CLEAR     44  41  89 CALM      29.78R
6HR MIN TEMP:  43; 6HR MAX TEMP:  48;

WAXAHACHIE     PTCLDY    45  45 100 S3        29.80R
6HR MIN TEMP:  43; 6HR MAX TEMP:  47;

CLEBURNE       MOCLDY   N/A N/A N/A MISG      29.82R
GRANBURY       CLOUDY    48  46  92 CALM      29.82R
6HR MIN TEMP:  43; 6HR MAX TEMP:  48;

$$

TXZ083>090-098>101-113>116-127>130-139>142-154-155-271300-
WESTERN NORTH TEXAS

CITY           SKY/WX    TMP DP  RH WIND       PRES   REMARKS
WICHITA FALLS  CLOUDY    46  41  82 SW13G20   29.74S
6HR MIN TEMP:  41; 6HR MAX TEMP:  51;

VERNON         CLOUDY    49  40  70 SW6       29.76R
6HR MIN TEMP:  44; 6HR MAX TEMP:  94;

ABILENE        CLEAR     47  41  80 SE7       29.76F
6HR MIN TEMP:  45; 6HR MAX TEMP:  52;

ABILENE-DYESS  CLOUDY    50  42  73 S9        29.74F
6HR MIN TEMP:  44; 6HR MAX TEMP:  51;

GRAHAM         PTCLDY    43  43 100 CALM      29.77F
6HR MIN TEMP:  41; 6HR MAX TEMP:  44;

BRECKENRIDGE   CLEAR     46  42  84 S5        29.78S
6HR MIN TEMP:  46; 6HR MAX TEMP:  51;

CISCO          CLEAR     46  41  81 S9        29.79R
RANGER         CLEAR     45  42  90 SW6       29.79S
6HR MIN TEMP:  42; 6HR MAX TEMP:  89;

MINERAL WELLS  CLOUDY    45  43  93 CALM      29.79R
6HR MIN TEMP:  41; 6HR MAX TEMP:  47;

STEPHENVILLE   CLOUDY    44  41  89 CALM      29.82S
6HR MIN TEMP:  44; 6HR MAX TEMP:  48;

COMANCHE       CLEAR     46  44  93 S6        29.79F
6HR MIN TEMP:  44; 6HR MAX TEMP:  49;

COLEMAN        CLOUDY    46  40  81 CALM      29.78S
6HR MIN TEMP:  43; 6HR MAX TEMP:  49;

$$

TXZ143>147-156>162-174-175-271300-
CENTRAL TEXAS

CITY           SKY/WX    TMP DP  RH WIND       PRES   REMARKS
WACO           CLEAR     48  47  96 SW6       29.82R
6HR MIN TEMP:  43; 6HR MAX TEMP:  50;

WACO-MCGREGOR  CLEAR     48  46  93 S5        29.83R
6HR MIN TEMP:  44; 6HR MAX TEMP:  50;

HILLSBORO      CLEAR     46  45  94 S3        29.81R
6HR MIN TEMP:  46; 6HR MAX TEMP:  51;

CORSICANA      CLEAR     51  48  89 SE5       29.79R
6HR MIN TEMP:  49; 6HR MAX TEMP:  52;

MEXIA          CLEAR     46  44  95 S10       29.82R
6HR MIN TEMP:  46; 6HR MAX TEMP:  51;

HEARNE         CLEAR     48  48 100 CALM      29.85R
6HR MIN TEMP:  47; 6HR MAX TEMP:  55;

CAMERON        CLEAR     50  47  88 CALM      29.84R
6HR MIN TEMP:  50; 6HR MAX TEMP:  55;

TEMPLE         CLEAR     46  45  96 SE6       29.83R
6HR MIN TEMP:  46; 6HR MAX TEMP:  52;

KILLEEN        PTCLDY    47  45  90 S6        29.80
6HR MIN TEMP:  46; 6HR MAX TEMP:  55;

KILLEEN-SKYLRK PTCLDY    47  44  90 CALM      29.82R
6HR MIN TEMP:  47; 6HR MAX TEMP:  54;

FORT HOOD      PTCLDY    47  45  90 S3        29.78R
6HR MIN TEMP:  47; 6HR MAX TEMP:  55;

GATESVILLE     PTCLDY    48  45  87 CALM      29.83S
HAMILTON       CLOUDY    47  47  99 S6        29.81S
6HR MIN TEMP:  45; 6HR MAX TEMP:  54;

LAMPASAS       CLEAR     49  47  92 CALM      29.80S
6HR MIN TEMP:  45; 6HR MAX TEMP:  55;

$$

TXZ095>097-106>112-122>126-135>138-148>153-164>167-271300-
EAST TEXAS

CITY           SKY/WX    TMP DP  RH WIND       PRES   REMARKS
PARIS          CLEAR     43  39  87 SE5       29.79R
6HR MIN TEMP:  43; 6HR MAX TEMP:  46;

SULPHUR SPRNGS CLEAR     45  45  99 SE3       29.80F
6HR MIN TEMP:  45; 6HR MAX TEMP:  49;

MOUNT PLEASANT MOCLDY    43  43 100 CALM      29.83R VSB 1/2
6HR MIN TEMP:  43; 6HR MAX TEMP:  51;

GILMER         CLEAR     44  44  99 CALM      29.82R
6HR MIN TEMP:  44; 6HR MAX TEMP:  50;

MINEOLA          N/A     43  43 100 SE5       29.80S
TYLER          CLEAR     47  45  93 E3        29.79R
6HR MIN TEMP:  45; 6HR MAX TEMP:  51;

LONGVIEW       PTCLDY    46  46 100 CALM      29.81R
6HR MIN TEMP:  45; 6HR MAX TEMP:  51;

MARSHALL       CLEAR     45  43  93 CALM      29.84R
6HR MIN TEMP:  45; 6HR MAX TEMP:  53;

ATHENS         CLEAR     41  41 100 CALM      29.77F
PALESTINE      CLEAR     45  44  97 SE3       29.82R
JACKSONVILLE   CLEAR     47  47  99 E3        29.81R
HENDERSON      CLEAR    N/A N/A N/A CALM      29.82R
CENTER         SUNNY     48  47  95 CALM      29.83R
6HR MIN TEMP:  48; 6HR MAX TEMP:  59;

NACOGDOCHES    CLEAR     43  39  87 CALM      29.80R
6HR MIN TEMP:  30; 6HR MAX TEMP:  54;

LUFKIN         CLEAR     45  44  97 CALM      29.82R
6HR MIN TEMP:  45; 6HR MAX TEMP:  54;

$$

SUPPLEMENTAL OBSERVATIONS (CENTRAL)

CITY           SKY/WX    TMP DP  RH WIND       PRES   REMARKS
$$

SUPPLEMENTAL OBSERVATIONS (WEST)

CITY           SKY/WX    TMP DP  RH WIND       PRES   REMARKS
$$

SUPPLEMENTAL OBSERVATIONS (EAST)

CITY           SKY/WX    TMP DP  RH WIND       PRES   REMARKS
$$

SUPPLEMENTAL OBSERVATIONS ARE A COLLECTION OF AUTOMATED INSTRUMENTS
THAT ARE MAINTAINED BY A VARIETY OF FEDERAL AND STATE AGENCIES.
CERTAIN ELEMENTS...SUCH AS HUMIDITY VALUES AND SUSTAINED WIND
SPEEDS...MAY BE APPROXIMATED.





USA.gov is the U.S. government's official web portal to all federal, state and local government web resources and services.